Weather in Ayacucho

Peru     13°09′55″S   74°13′23″W
temp.,
°C
wind,
m/s
gust,
m/s
humid.,
%
clouds,
%
prec.,
mm/h
press.,
hPa
HPBL,
m
21 january, thu
thu2101:00+8n3389100 0.9 1017320
04:00+7nne2289100 0.4 1017246
07:00+8nne1183100 0.6 1018257
10:00+12nne226685 0.1 1018937
13:00+14ne336082 0.8 10141161
16:00+14ne336062 1.8 10121164
19:00+10ne237869 3.3 1015323
22:00+9ne238595 0.5 1018303
22 january, fri
fri2201:00+8n118596 2.0 1018287
04:00+8n2285100 0.4 1017300
07:00+7nnw228899 0.5 1019240
10:00+10nne337286 0.2 1018669
13:00+14nne335682 0.9 10141278
16:00+15ne335643 1.0 10121277
19:00+10ne338253 3.8 101662
22:00+8n238864 1.4 1019164
23 january, sat
sat2301:00+6n229253 1.6 101836
04:00+6nw119372 0.1 101891
07:00+7nne118680 0.1 1019197
10:00+12n3267100 0.1 1018881
13:00+15nne3353100 0.5 10131396
16:00+15ne3360100 2.3 10121008
19:00+10nne348292 5.6 101598
22:00+8n2387100 0.3 1018119
24 january, sun
sun2401:00+7n2293100 0.5 1018133
04:00+7nne1195100 1.6 1017134
07:00+7nne1189100 1.6 1018211
10:00+9n228099 0.1 1017467
13:00+14n336196 0.4 1013957
16:00+15nne335754 0.8 10111234
19:00+10ne238068 2.6 101428
22:00+8nne1289100 1.1 101798
25 january, mon
mon2501:00+7ne1291100 1.3 1016137
04:00+7n3396100 0.7 1015197
07:00+7nnw1294100 0.9 1018202
10:00+11n337495 0.1 1017619
13:00+14n445885 0.5 10131076
16:00+14nne336324 1.4 10111067
19:00+10ssw458560 6.6 1014295
22:00+7se3486100 5.7 1017252